TAP257 LPPT-FZAA

Flight info

Callsign TAP257
Flight time N/A
Altitude 23000
Route ESP UZ5 VFA UP600 AMSEL/N0500F310 UR722 SAK UW900 OZT UJ744 BAGBO/N0498F330 UM629 BAKAB UR981 NY UT365 BOVDA UL684 PITRO/N0502F350 UL684 ABC UW225 AKLIS UA604 BZ
Aircraft B742/H-A1B3B4B5/S

Departure

Time 2026-04-29 08:38
Airport Lisbon Humberto Delgado Airport (LPPT)

Arrival

Time N/A
Airport Ndjili International Airport (FZAA)
Time Latitude Longitude Altitude Speed Heading
2026-04-29 07:47 38.77672 -9.13214 384 ft 0 kts 120°
2026-04-29 08:22 38.77672 -9.13215 384 ft 1 kts 120°
2026-04-29 08:22 38.77679 -9.13230 384 ft 2 kts 120°
2026-04-29 08:23 38.77687 -9.13247 384 ft 2 kts 120°
2026-04-29 08:23 38.77694 -9.13263 384 ft 2 kts 120°
2026-04-29 08:23 38.77702 -9.13280 384 ft 2 kts 120°
2026-04-29 08:23 38.77710 -9.13297 384 ft 2 kts 120°
2026-04-29 08:24 38.77717 -9.13313 384 ft 2 kts 127°
2026-04-29 08:24 38.77728 -9.13327 384 ft 2 kts 143°
2026-04-29 08:24 38.77741 -9.13337 384 ft 2 kts 157°
2026-04-29 08:24 38.77751 -9.13341 384 ft 0 kts 167°
2026-04-29 08:25 38.77755 -9.13342 384 ft 0 kts 168°
2026-04-29 08:27 38.77745 -9.13340 384 ft 4 kts 172°
2026-04-29 08:28 38.77697 -9.13344 384 ft 9 kts 191°
2026-04-29 08:28 38.77638 -9.13381 384 ft 8 kts 226°
2026-04-29 08:28 38.77633 -9.13449 384 ft 8 kts 308°
2026-04-29 08:28 38.77692 -9.13479 384 ft 10 kts 348°
2026-04-29 08:29 38.77766 -9.13500 384 ft 11 kts 347°
2026-04-29 08:29 38.77849 -9.13523 384 ft 13 kts 348°
2026-04-29 08:29 38.77943 -9.13550 384 ft 14 kts 347°
2026-04-29 08:29 38.78046 -9.13579 384 ft 15 kts 347°
2026-04-29 08:30 38.78154 -9.13609 384 ft 16 kts 348°
2026-04-29 08:30 38.78378 -9.13665 384 ft 15 kts 348°
2026-04-29 08:30 38.78482 -9.13694 384 ft 14 kts 347°
2026-04-29 08:31 38.78567 -9.13714 384 ft 10 kts
2026-04-29 08:31 38.78616 -9.13670 384 ft 7 kts 65°
2026-04-29 08:31 38.78627 -9.13612 384 ft 6 kts 72°
2026-04-29 08:31 38.78667 -9.13557 384 ft 10 kts 31°
2026-04-29 08:32 38.78745 -9.13512 384 ft 14 kts 23°
2026-04-29 08:32 38.78845 -9.13459 384 ft 17 kts 24°
2026-04-29 08:32 38.78957 -9.13398 384 ft 16 kts 22°
2026-04-29 08:32 38.79055 -9.13347 384 ft 14 kts 22°
2026-04-29 08:33 38.79139 -9.13302 384 ft 12 kts 22°
2026-04-29 08:33 38.79222 -9.13259 384 ft 12 kts 22°
2026-04-29 08:33 38.79308 -9.13210 384 ft 14 kts 23°
2026-04-29 08:33 38.79404 -9.13159 384 ft 15 kts 22°
2026-04-29 08:34 38.79503 -9.13106 384 ft 15 kts 22°
2026-04-29 08:34 38.79603 -9.13055 384 ft 15 kts 21°
2026-04-29 08:34 38.79694 -9.13005 384 ft 13 kts 23°
2026-04-29 08:34 38.79756 -9.12950 384 ft 9 kts 63°
2026-04-29 08:35 38.79761 -9.12880 384 ft 7 kts 99°
2026-04-29 08:35 38.79744 -9.12814 384 ft 8 kts 112°
2026-04-29 08:35 38.79707 -9.12762 384 ft 8 kts 170°
2026-04-29 08:35 38.79645 -9.12779 384 ft 9 kts 202°
2026-04-29 08:36 38.79612 -9.12796 384 ft 0 kts 202°
2026-04-29 08:36 38.79498 -9.12857 384 ft 41 kts 203°
2026-04-29 08:36 38.79086 -9.13080 384 ft 86 kts 203°
2026-04-29 08:37 38.78396 -9.13450 384 ft 127 kts 203°
2026-04-29 08:37 38.77442 -9.13964 385 ft 164 kts 203°
2026-04-29 08:37 38.76317 -9.14560 512 ft 180 kts 204°
2026-04-29 08:37 38.75143 -9.15172 785 ft 184 kts 203°
2026-04-29 08:38 38.73970 -9.15746 1186 ft 182 kts 203°
2026-04-29 08:38 38.72767 -9.16428 1390 ft 188 kts 208°
2026-04-29 08:38 38.71595 -9.17090 1528 ft 184 kts 204°
2026-04-29 08:38 38.70427 -9.17718 1685 ft 176 kts 204°
2026-04-29 08:39 38.69318 -9.18305 1807 ft 171 kts 204°
2026-04-29 08:39 38.68229 -9.18882 1870 ft 169 kts 204°
2026-04-29 08:39 38.67123 -9.19472 1942 ft 173 kts 204°
2026-04-29 08:39 38.65990 -9.20076 2022 ft 177 kts 204°
2026-04-29 08:40 38.64827 -9.20658 2096 ft 183 kts 200°
2026-04-29 08:40 38.63600 -9.21182 2181 ft 188 kts 199°
2026-04-29 08:40 38.62332 -9.21675 2376 ft 188 kts 198°
2026-04-29 08:40 38.61081 -9.22138 2541 ft 190 kts 197°
2026-04-29 08:41 38.59748 -9.22617 2926 ft 202 kts 197°
2026-04-29 08:41 38.58390 -9.23100 3453 ft 206 kts 197°
2026-04-29 08:41 38.56974 -9.23344 3977 ft 210 kts 175°
2026-04-29 08:41 38.55544 -9.22926 4555 ft 211 kts 163°
2026-04-29 08:42 38.54200 -9.22221 5136 ft 211 kts 159°
2026-04-29 08:42 38.52856 -9.21477 5707 ft 209 kts 160°
2026-04-29 08:42 38.51534 -9.20754 6254 ft 208 kts 160°
2026-04-29 08:42 38.50209 -9.20036 6773 ft 206 kts 160°
2026-04-29 08:43 38.48907 -9.19332 7256 ft 205 kts 160°
2026-04-29 08:43 38.47585 -9.18619 7732 ft 204 kts 160°
2026-04-29 08:43 38.46325 -9.17938 8062 ft 196 kts 160°
2026-04-29 08:43 38.45065 -9.17261 8215 ft 196 kts 160°
2026-04-29 08:44 38.43802 -9.16581 8348 ft 197 kts 161°
2026-04-29 08:44 38.42530 -9.15897 8476 ft 198 kts 161°
2026-04-29 08:44 38.41263 -9.15216 8603 ft 199 kts 161°
2026-04-29 08:44 38.39993 -9.14534 8725 ft 200 kts 161°
2026-04-29 08:45 38.38699 -9.13839 8851 ft 201 kts 161°
2026-04-29 08:45 38.37391 -9.13138 8980 ft 206 kts 161°
2026-04-29 08:45 38.36049 -9.12419 9112 ft 217 kts 161°
2026-04-29 08:45 38.34606 -9.11647 9247 ft 230 kts 160°
2026-04-29 08:46 38.33082 -9.10830 9376 ft 244 kts 160°
2026-04-29 08:46 38.31452 -9.09957 9475 ft 261 kts 160°
2026-04-29 08:46 38.29739 -9.09040 9695 ft 275 kts 160°
2026-04-29 08:46 38.27920 -9.08067 9818 ft 294 kts 160°
2026-04-29 08:47 38.25953 -9.07016 9908 ft 315 kts 160°
2026-04-29 08:47 38.23867 -9.05902 10047 ft 336 kts 160°
2026-04-29 08:47 38.21656 -9.04721 10268 ft 359 kts 160°
2026-04-29 08:47 38.19278 -9.03452 10581 ft 379 kts 160°
2026-04-29 08:48 38.16766 -9.02113 10979 ft 396 kts 160°
2026-04-29 08:48 38.14251 -9.00769 11420 ft 390 kts 160°
2026-04-29 08:48 38.11791 -8.99451 11870 ft 381 kts 160°
2026-04-29 08:48 38.09369 -8.98160 12303 ft 382 kts 160°
2026-04-29 08:49 38.06882 -8.96838 12706 ft 386 kts 161°
2026-04-29 08:49 38.04406 -8.95523 13106 ft 389 kts 161°
2026-04-29 08:49 38.01895 -8.94189 13507 ft 392 kts 161°
2026-04-29 08:49 37.99371 -8.92850 13900 ft 395 kts 161°
2026-04-29 08:50 37.96811 -8.91491 14309 ft 398 kts 161°
2026-04-29 08:50 37.94276 -8.90147 14725 ft 398 kts 161°
2026-04-29 08:50 37.91698 -8.88780 15184 ft 399 kts 161°
2026-04-29 08:50 37.89140 -8.87425 15659 ft 400 kts 162°
2026-04-29 08:51 37.86576 -8.86069 16130 ft 401 kts 162°
2026-04-29 08:51 37.84016 -8.84716 16596 ft 402 kts 162°
2026-04-29 08:51 37.81412 -8.83342 17086 ft 402 kts 162°
2026-04-29 08:51 37.78836 -8.81981 17559 ft 402 kts 162°
2026-04-29 08:52 37.76260 -8.80623 18033 ft 402 kts 162°
2026-04-29 08:52 37.73688 -8.79267 18504 ft 402 kts 163°
2026-04-29 08:52 37.71112 -8.77910 18963 ft 402 kts 163°
2026-04-29 08:52 37.68517 -8.76545 19401 ft 401 kts 163°
2026-04-29 08:53 37.65935 -8.75187 19798 ft 402 kts 163°
2026-04-29 08:53 37.63375 -8.73843 20110 ft 405 kts 163°
2026-04-29 08:53 37.60740 -8.72461 20424 ft 407 kts 163°
2026-04-29 08:53 37.58137 -8.71097 20669 ft 412 kts 163°
2026-04-29 08:54 37.55454 -8.69692 20899 ft 417 kts 163°
2026-04-29 08:54 37.52787 -8.68297 21125 ft 421 kts 163°
2026-04-29 08:54 37.50053 -8.66867 21349 ft 426 kts 163°
2026-04-29 08:54 37.47315 -8.65436 21576 ft 431 kts 163°
2026-04-29 08:55 37.44502 -8.63967 21805 ft 435 kts 163°
2026-04-29 08:55 37.41716 -8.62512 22029 ft 440 kts 163°
2026-04-29 08:55 37.38863 -8.61024 22257 ft 444 kts 163°
2026-04-29 08:55 37.36015 -8.59540 22483 ft 449 kts 163°
2026-04-29 08:56 37.33094 -8.58020 22710 ft 453 kts 163°
2026-04-29 08:56 37.30197 -8.56513 22931 ft 457 kts 163°
2026-04-29 08:56 37.27234 -8.54973 23161 ft 461 kts 163°
2026-04-29 08:56 37.24272 -8.53435 23384 ft 465 kts 163°
2026-04-29 08:57 37.21260 -8.51871 23617 ft 469 kts 163°
2026-04-29 08:57 37.18248 -8.50310 23843 ft 472 kts 163°
2026-04-29 08:57 37.15189 -8.48724 24068 ft 475 kts 163°
2026-04-29 08:57 37.12105 -8.47127 24303 ft 479 kts 163°
2026-04-29 08:58 37.09039 -8.45542 24526 ft 481 kts 163°
2026-04-29 08:58 37.05917 -8.43928 24756 ft 484 kts 163°
2026-04-29 08:58 37.02803 -8.42319 24982 ft 487 kts 163°
2026-04-29 08:58 36.99666 -8.40701 25216 ft 489 kts 163°
2026-04-29 08:59 36.96497 -8.39067 25444 ft 492 kts 163°
2026-04-29 08:59 36.93349 -8.37445 25676 ft 493 kts 163°
2026-04-29 08:59 36.90146 -8.35797 25904 ft 495 kts 163°
2026-04-29 08:59 36.86942 -8.34150 26136 ft 497 kts 163°
2026-04-29 09:00 36.83755 -8.32513 26366 ft 497 kts 163°
2026-04-29 09:00 36.80564 -8.30875 26597 ft 498 kts 163°
2026-04-29 09:00 36.77319 -8.29212 26828 ft 499 kts 163°
2026-04-29 09:00 36.74113 -8.27570 27059 ft 500 kts 163°
2026-04-29 09:01 36.70903 -8.25926 27287 ft 500 kts 163°
2026-04-29 09:01 36.67676 -8.24277 27512 ft 501 kts 163°
2026-04-29 09:01 36.64447 -8.22627 27743 ft 501 kts 163°
2026-04-29 09:01 36.61258 -8.21000 27972 ft 501 kts 163°
2026-04-29 09:02 36.58014 -8.19345 28203 ft 501 kts 163°
2026-04-29 09:02 36.54770 -8.17693 28438 ft 501 kts 163°
2026-04-29 09:02 36.51546 -8.16051 28672 ft 501 kts 163°
2026-04-29 09:02 36.48364 -8.14433 28901 ft 500 kts 163°
2026-04-29 09:03 36.45123 -8.12786 29133 ft 500 kts 163°
2026-04-29 09:03 36.41902 -8.11151 29365 ft 499 kts 163°
2026-04-29 09:03 36.38691 -8.09523 29583 ft 499 kts 163°
2026-04-29 09:03 36.35494 -8.07904 29752 ft 499 kts 163°
2026-04-29 09:04 36.32274 -8.06275 29920 ft 500 kts 163°
2026-04-29 09:04 36.29063 -8.04651 30090 ft 500 kts 163°
2026-04-29 09:04 36.25836 -8.03021 30262 ft 500 kts 163°
2026-04-29 09:04 36.22597 -8.01386 30434 ft 500 kts 163°
2026-04-29 09:05 36.19354 -7.99750 30607 ft 500 kts 163°
2026-04-29 09:05 36.16153 -7.98137 30781 ft 500 kts 163°
2026-04-29 09:05 36.12931 -7.96515 30892 ft 502 kts 163°
2026-04-29 09:06 36.06427 -7.93248 30923 ft 509 kts 163°
2026-04-29 09:06 35.99806 -7.90002 30918 ft 510 kts 167°
2026-04-29 09:07 35.92945 -7.88133 30913 ft 499 kts 178°
2026-04-29 09:07 35.86075 -7.87308 30906 ft 495 kts 181°
2026-04-29 09:08 35.79158 -7.86708 30909 ft 496 kts 181°
2026-04-29 09:08 35.72284 -7.86113 30909 ft 497 kts 181°
2026-04-29 09:09 35.65389 -7.85497 30910 ft 496 kts 181°
2026-04-29 09:09 35.58521 -7.84878 30912 ft 496 kts 181°
2026-04-29 09:10 35.51639 -7.84257 30914 ft 495 kts 181°
2026-04-29 09:10 35.44767 -7.83640 30915 ft 496 kts 181°
2026-04-29 09:11 35.37877 -7.83040 30914 ft 495 kts 181°
2026-04-29 09:11 35.30972 -7.82454 30915 ft 495 kts 181°
2026-04-29 09:12 35.24126 -7.81877 30917 ft 496 kts 181°
2026-04-29 09:12 35.17214 -7.81295 30918 ft 496 kts 181°
2026-04-29 09:13 35.10314 -7.80714 30920 ft 494 kts 181°
2026-04-29 09:13 35.03506 -7.80142 30924 ft 493 kts 181°
2026-04-29 09:14 34.96603 -7.79565 30925 ft 494 kts 181°
2026-04-29 09:14 34.89749 -7.78992 30923 ft 495 kts 181°
2026-04-29 09:15 34.82892 -7.78419 30923 ft 494 kts 181°
2026-04-29 09:15 34.76027 -7.77855 30923 ft 493 kts 181°
2026-04-29 09:16 34.69122 -7.77343 30929 ft 496 kts 181°
2026-04-29 09:16 34.62233 -7.76857 30926 ft 497 kts 181°
2026-04-29 09:17 34.55344 -7.76376 30929 ft 497 kts 181°
2026-04-29 09:17 34.48403 -7.75893 30929 ft 496 kts 181°
2026-04-29 09:18 34.41519 -7.75414 30931 ft 496 kts 181°
2026-04-29 09:18 34.34622 -7.74936 30932 ft 497 kts 181°
2026-04-29 09:19 34.27708 -7.74457 30935 ft 497 kts 181°
2026-04-29 09:19 34.20809 -7.73966 30935 ft 497 kts 181°
2026-04-29 09:20 34.13863 -7.73381 30934 ft 498 kts 180°
2026-04-29 09:20 34.06941 -7.72750 30937 ft 500 kts 180°
2026-04-29 09:21 33.99996 -7.72107 30936 ft 499 kts 179°
2026-04-29 09:21 33.93120 -7.71469 30939 ft 496 kts 180°
2026-04-29 09:22 33.86195 -7.70833 30943 ft 498 kts 180°
2026-04-29 09:22 33.79252 -7.70195 30945 ft 499 kts 180°
2026-04-29 09:23 33.72364 -7.69563 30945 ft 498 kts 180°
2026-04-29 09:23 33.65414 -7.68926 30945 ft 498 kts 180°
2026-04-29 09:24 33.58505 -7.68295 30950 ft 499 kts 180°
2026-04-29 09:24 33.51588 -7.67082 30951 ft 506 kts 170°
2026-04-29 09:25 33.44824 -7.64667 30952 ft 509 kts 165°
2026-04-29 09:25 33.38143 -7.61859 30954 ft 508 kts 164°
2026-04-29 09:26 33.31463 -7.59006 30955 ft 508 kts 164°
2026-04-29 09:26 33.24769 -7.56172 30954 ft 509 kts 164°
2026-04-29 09:27 33.18079 -7.53357 30950 ft 510 kts 164°
2026-04-29 09:27 33.11337 -7.50740 30947 ft 509 kts 167°
2026-04-29 09:28 33.04477 -7.48599 30946 ft 506 kts 170°
2026-04-29 09:28 32.97623 -7.46650 30947 ft 506 kts 170°
2026-04-29 09:29 32.90785 -7.44733 30943 ft 505 kts 170°
2026-04-29 09:29 32.80490 -7.41841 30948 ft 506 kts 170°
2026-04-29 09:30 32.73622 -7.39912 30947 ft 507 kts 170°
2026-04-29 09:30 32.66731 -7.37979 30946 ft 507 kts 170°
2026-04-29 09:31 32.59891 -7.36061 30949 ft 506 kts 170°
2026-04-29 09:31 32.52964 -7.34121 30945 ft 506 kts 170°
2026-04-29 09:32 32.46142 -7.32213 30944 ft 506 kts 170°
2026-04-29 09:32 32.39238 -7.30285 30946 ft 506 kts 170°
2026-04-29 09:33 32.32424 -7.28385 30948 ft 506 kts 170°
2026-04-29 09:33 32.25544 -7.26471 30949 ft 506 kts 170°
2026-04-29 09:34 32.18694 -7.24569 30948 ft 506 kts 170°
2026-04-29 09:34 32.11833 -7.22666 30945 ft 506 kts 170°
2026-04-29 09:35 32.04985 -7.20771 30953 ft 507 kts 170°
2026-04-29 09:35 31.98107 -7.18870 30955 ft 507 kts 170°
2026-04-29 09:36 31.91204 -7.16965 30955 ft 507 kts 170°
2026-04-29 09:36 31.84319 -7.15068 30958 ft 507 kts 170°
2026-04-29 09:37 31.77465 -7.13182 30958 ft 506 kts 170°
2026-04-29 09:37 31.70576 -7.11290 30960 ft 505 kts 170°
2026-04-29 09:38 31.63754 -7.09419 30980 ft 506 kts 170°
2026-04-29 09:38 31.56859 -7.07532 31004 ft 507 kts 169°
2026-04-29 09:39 31.49974 -7.05649 31026 ft 507 kts 170°
2026-04-29 09:39 31.43104 -7.03773 31038 ft 507 kts 169°
2026-04-29 09:40 31.36238 -7.01902 31039 ft 505 kts 169°
2026-04-29 09:40 31.29400 -7.00043 31037 ft 505 kts 169°
2026-04-29 09:41 31.22559 -6.98187 31029 ft 506 kts 169°
2026-04-29 09:41 31.15640 -6.96312 31016 ft 507 kts 169°
2026-04-29 09:42 31.08780 -6.94456 31001 ft 507 kts 169°
2026-04-29 09:42 31.01903 -6.92588 30983 ft 507 kts 169°
2026-04-29 09:43 30.95394 -6.89418 30961 ft 514 kts 148°
2026-04-29 09:43 30.92638 -6.86765 30966 ft 519 kts 136°
2026-04-29 09:43 30.90364 -6.83526 30968 ft 522 kts 126°
2026-04-29 09:44 30.86682 -6.76177 30976 ft 525 kts 120°
2026-04-29 09:44 30.83217 -6.68716 30980 ft 523 kts 120°
2026-04-29 09:45 30.79655 -6.61323 30990 ft 523 kts 121°
2026-04-29 09:45 30.76061 -6.54024 30994 ft 523 kts 121°
2026-04-29 09:46 30.72422 -6.46675 30994 ft 522 kts 121°
2026-04-29 09:46 30.68813 -6.39400 31001 ft 522 kts 121°
2026-04-29 09:47 30.65175 -6.32074 30996 ft 523 kts 122°
2026-04-29 09:47 30.61547 -6.24782 30997 ft 522 kts 122°
2026-04-29 09:48 30.57919 -6.17502 30990 ft 522 kts 122°
2026-04-29 09:48 30.54280 -6.10216 30985 ft 523 kts 122°
2026-04-29 09:49 30.50626 -6.02912 30968 ft 525 kts 122°
2026-04-29 09:49 30.46944 -5.95565 30951 ft 524 kts 122°
2026-04-29 09:50 30.43285 -5.88278 30952 ft 523 kts 122°
2026-04-29 09:50 30.39640 -5.81034 30948 ft 523 kts 122°
2026-04-29 09:51 30.35958 -5.73730 30945 ft 522 kts 122°
2026-04-29 09:51 30.31669 -5.67043 30938 ft 515 kts 140°
2026-04-29 09:52 30.25827 -5.62379 30935 ft 512 kts 154°
2026-04-29 09:52 30.19402 -5.58834 30920 ft 511 kts 159°
2026-04-29 09:53 30.12896 -5.55539 30902 ft 508 kts 159°
2026-04-29 09:53 30.06422 -5.52247 30897 ft 508 kts 159°
2026-04-29 09:54 29.99961 -5.48935 30892 ft 510 kts 158°
2026-04-29 09:54 29.93479 -5.45605 30891 ft 508 kts 159°
2026-04-29 09:55 29.86999 -5.42279 30889 ft 507 kts 158°
2026-04-29 09:55 29.80555 -5.38977 30896 ft 507 kts 158°
2026-04-29 09:56 29.74066 -5.35657 30900 ft 508 kts 159°
2026-04-29 09:56 29.67593 -5.32350 30900 ft 507 kts 159°
2026-04-29 09:57 29.61161 -5.29068 30897 ft 507 kts 159°
2026-04-29 09:57 29.54664 -5.25758 30899 ft 508 kts 159°
2026-04-29 09:58 29.48235 -5.22487 30894 ft 507 kts 159°
2026-04-29 09:58 29.41784 -5.19210 30894 ft 506 kts 159°
2026-04-29 09:59 29.35305 -5.15923 30895 ft 506 kts 159°
2026-04-29 09:59 29.28838 -5.12647 30895 ft 507 kts 159°
2026-04-29 10:00 29.22395 -5.09387 30896 ft 505 kts 159°
2026-04-29 10:00 29.15948 -5.06129 30903 ft 505 kts 160°
2026-04-29 10:01 29.09516 -5.02885 30909 ft 506 kts 160°
2026-04-29 10:01 29.03095 -4.99650 30908 ft 506 kts 160°
2026-04-29 10:02 28.96632 -4.96397 30906 ft 505 kts 160°
2026-04-29 10:02 28.90223 -4.93177 30908 ft 504 kts 160°
2026-04-29 10:03 28.83741 -4.89925 30906 ft 506 kts 160°
2026-04-29 10:03 28.77283 -4.86689 30906 ft 506 kts 160°
2026-04-29 10:04 28.70848 -4.83468 30904 ft 504 kts 160°
2026-04-29 10:04 28.64403 -4.80248 30908 ft 505 kts 160°
2026-04-29 10:05 28.57949 -4.77028 30909 ft 507 kts 160°
2026-04-29 10:05 28.51507 -4.73817 30910 ft 506 kts 161°
2026-04-29 10:06 28.45057 -4.70605 30914 ft 504 kts 161°
2026-04-29 10:06 28.38628 -4.67410 30916 ft 504 kts 161°
2026-04-29 10:07 28.32188 -4.64214 30916 ft 505 kts 161°
2026-04-29 10:07 28.25780 -4.61036 30924 ft 504 kts 161°
2026-04-29 10:08 28.19342 -4.57850 30923 ft 505 kts 161°
2026-04-29 10:08 28.12853 -4.54642 30921 ft 505 kts 161°
2026-04-29 10:09 28.06443 -4.51479 30927 ft 503 kts 162°
2026-04-29 10:09 27.99946 -4.48514 30929 ft 501 kts 164°
2026-04-29 10:10 27.93400 -4.45752 30930 ft 502 kts 165°
2026-04-29 10:10 27.86839 -4.43045 30933 ft 501 kts 165°
2026-04-29 10:11 27.80302 -4.40354 30930 ft 500 kts 165°
2026-04-29 10:11 27.73717 -4.37643 30938 ft 500 kts 165°
2026-04-29 10:12 27.67206 -4.34965 30938 ft 500 kts 166°
2026-04-29 10:12 27.60638 -4.32266 30938 ft 499 kts 166°
2026-04-29 10:13 27.54087 -4.29578 30939 ft 499 kts 166°
2026-04-29 10:13 27.47518 -4.26886 30938 ft 499 kts 166°
2026-04-29 10:14 27.40993 -4.24216 30940 ft 500 kts 166°
2026-04-29 10:14 27.34467 -4.21548 30950 ft 499 kts 166°
2026-04-29 10:15 27.27931 -4.18879 30948 ft 499 kts 166°
2026-04-29 10:15 27.21403 -4.16207 30948 ft 500 kts 166°
2026-04-29 10:16 27.14846 -4.13515 30955 ft 501 kts 166°
2026-04-29 10:16 27.08314 -4.10832 30957 ft 499 kts 166°
2026-04-29 10:17 27.01749 -4.08139 30957 ft 499 kts 166°
2026-04-29 10:17 26.95225 -4.05467 30962 ft 499 kts 166°
2026-04-29 10:18 26.88711 -4.02802 30960 ft 498 kts 166°
2026-04-29 10:18 26.82148 -4.00121 30960 ft 498 kts 166°
2026-04-29 10:19 26.75657 -3.97474 30961 ft 500 kts 166°
2026-04-29 10:19 26.69076 -3.94791 30960 ft 498 kts 166°
2026-04-29 10:20 26.62554 -3.92136 30963 ft 499 kts 166°
2026-04-29 10:20 26.56048 -3.89491 30957 ft 501 kts 166°
2026-04-29 10:21 26.49485 -3.86826 30951 ft 500 kts 166°
2026-04-29 10:21 26.42940 -3.84170 30946 ft 499 kts 166°
2026-04-29 10:22 26.36399 -3.81521 30947 ft 500 kts 166°
2026-04-29 10:22 26.29830 -3.78864 30940 ft 500 kts 166°
2026-04-29 10:23 26.23312 -3.76229 30932 ft 499 kts 166°
2026-04-29 10:23 26.16792 -3.73597 30933 ft 498 kts 166°
2026-04-29 10:24 26.10248 -3.70937 30930 ft 500 kts 166°
2026-04-29 10:24 26.03698 -3.68246 30929 ft 500 kts 166°
2026-04-29 10:25 25.97177 -3.65560 30925 ft 500 kts 166°
2026-04-29 10:25 25.90601 -3.62854 30927 ft 501 kts 166°
2026-04-29 10:26 25.84039 -3.60159 30926 ft 503 kts 166°
2026-04-29 10:26 25.77460 -3.57458 30925 ft 503 kts 166°
2026-04-29 10:27 25.67617 -3.53424 30919 ft 501 kts 166°
2026-04-29 10:28 25.61111 -3.50762 30921 ft 501 kts 166°
2026-04-29 10:28 25.54549 -3.48082 30919 ft 503 kts 166°
2026-04-29 10:29 25.47917 -3.45376 30919 ft 505 kts 166°
2026-04-29 10:29 25.41360 -3.42700 30918 ft 502 kts 166°
2026-04-29 10:30 25.34747 -3.40008 30910 ft 504 kts 166°
2026-04-29 10:30 25.28175 -3.37335 30908 ft 504 kts 166°
2026-04-29 10:31 25.21569 -3.34651 30907 ft 504 kts 167°
2026-04-29 10:31 25.14976 -3.31974 30908 ft 503 kts 167°
2026-04-29 10:32 25.08378 -3.29299 30907 ft 503 kts 167°
2026-04-29 10:32 25.01798 -3.26637 30910 ft 505 kts 167°
2026-04-29 10:33 24.95207 -3.23971 30902 ft 504 kts 167°
2026-04-29 10:33 24.88591 -3.21298 30904 ft 505 kts 167°
2026-04-29 10:34 24.81977 -3.18629 30908 ft 505 kts 167°
2026-04-29 10:34 24.75359 -3.15961 30911 ft 504 kts 167°
2026-04-29 10:35 24.68752 -3.13302 30900 ft 505 kts 167°
2026-04-29 10:35 24.62119 -3.10635 30906 ft 506 kts 167°
2026-04-29 10:36 24.55495 -3.07974 30898 ft 506 kts 167°
2026-04-29 10:36 24.48861 -3.05312 30902 ft 506 kts 167°
2026-04-29 10:37 24.42234 -3.02656 30913 ft 506 kts 167°
2026-04-29 10:37 24.35588 -2.99996 30916 ft 507 kts 167°
2026-04-29 10:38 24.28956 -2.97343 30918 ft 504 kts 167°
2026-04-29 10:38 24.22398 -2.94722 30914 ft 503 kts 167°
2026-04-29 10:39 24.15757 -2.92075 30905 ft 505 kts 167°
2026-04-29 10:39 24.09125 -2.89433 30915 ft 507 kts 167°
2026-04-29 10:40 24.02510 -2.86799 30907 ft 508 kts 167°
2026-04-29 10:40 23.95824 -2.84139 30907 ft 508 kts 167°
2026-04-29 10:41 23.89178 -2.81498 30912 ft 506 kts 167°
2026-04-29 10:41 23.82514 -2.78853 30914 ft 506 kts 167°
2026-04-29 10:42 23.75880 -2.76225 30912 ft 507 kts 167°
2026-04-29 10:42 23.69255 -2.73604 30900 ft 506 kts 167°
2026-04-29 10:43 23.62587 -2.71008 30911 ft 506 kts 168°
2026-04-29 10:43 23.55916 -2.68449 30905 ft 507 kts 168°
2026-04-29 10:44 23.49224 -2.65893 30898 ft 508 kts 168°
2026-04-29 10:44 23.42561 -2.63348 30906 ft 507 kts 168°
2026-04-29 10:45 23.35865 -2.60793 30902 ft 506 kts 168°
2026-04-29 10:45 23.29173 -2.58245 30901 ft 508 kts 168°
2026-04-29 10:46 23.22498 -2.55705 30900 ft 508 kts 168°
2026-04-29 10:46 23.15794 -2.53155 30900 ft 507 kts 168°
2026-04-29 10:47 23.09140 -2.50628 30902 ft 507 kts 168°
2026-04-29 10:47 23.02434 -2.48085 30896 ft 508 kts 168°
2026-04-29 10:48 22.95731 -2.45545 30906 ft 509 kts 168°
2026-04-29 10:48 22.89048 -2.43014 30909 ft 508 kts 168°
2026-04-29 10:49 22.82340 -2.40474 31219 ft 503 kts 168°
2026-04-29 10:49 22.79060 -2.39234 31419 ft 502 kts 168°
2026-04-29 10:49 22.75761 -2.37988 31605 ft 502 kts 168°
2026-04-29 10:49 22.72456 -2.36741 31789 ft 501 kts 168°
2026-04-29 10:50 22.69128 -2.35487 31957 ft 501 kts 168°
2026-04-29 10:50 22.65812 -2.34237 32097 ft 502 kts 169°
2026-04-29 10:50 22.62535 -2.33002 32254 ft 501 kts 169°
2026-04-29 10:50 22.59238 -2.31760 32385 ft 501 kts 169°
2026-04-29 10:51 22.55908 -2.30506 32520 ft 502 kts 169°
2026-04-29 10:51 22.52620 -2.29269 32647 ft 502 kts 169°
2026-04-29 10:51 22.49316 -2.28026 32756 ft 502 kts 169°
2026-04-29 10:51 22.45988 -2.26775 32863 ft 503 kts 169°
2026-04-29 10:52 22.42665 -2.25527 32898 ft 505 kts 169°
2026-04-29 10:52 22.35989 -2.23024 32899 ft 511 kts 169°
2026-04-29 10:53 22.29262 -2.20499 32908 ft 510 kts 169°
2026-04-29 10:53 22.22566 -2.17985 32912 ft 508 kts 169°
2026-04-29 10:54 22.15857 -2.15476 32933 ft 510 kts 169°
2026-04-29 10:54 22.09102 -2.12950 32936 ft 510 kts 169°
2026-04-29 10:55 22.02419 -2.10451 32929 ft 507 kts 169°
2026-04-29 10:55 21.95779 -2.07972 32927 ft 507 kts 169°
2026-04-29 10:56 21.89029 -2.05461 32924 ft 512 kts 169°
2026-04-29 10:56 21.82272 -2.02945 32924 ft 513 kts 169°
2026-04-29 10:57 21.75539 -2.00434 32921 ft 509 kts 169°
2026-04-29 10:57 21.68840 -1.97946 32929 ft 510 kts 169°
2026-04-29 10:58 21.62113 -1.95448 32928 ft 510 kts 169°
2026-04-29 10:58 21.55384 -1.92952 32923 ft 510 kts 169°
2026-04-29 10:59 21.48634 -1.90451 32927 ft 510 kts 169°
2026-04-29 10:59 21.41908 -1.87959 32926 ft 510 kts 169°
2026-04-29 11:00 21.35179 -1.85472 32925 ft 512 kts 169°
2026-04-29 11:00 21.28438 -1.82981 32924 ft 512 kts 168°
2026-04-29 11:01 21.21721 -1.80501 32929 ft 512 kts 168°
2026-04-29 11:01 21.14964 -1.78009 32928 ft 511 kts 168°
2026-04-29 11:02 21.08195 -1.75515 32926 ft 513 kts 168°
2026-04-29 11:02 21.01465 -1.73038 32932 ft 512 kts 168°
2026-04-29 11:03 20.94692 -1.70548 32926 ft 514 kts 168°
2026-04-29 11:03 20.87880 -1.68045 32931 ft 513 kts 168°
2026-04-29 11:04 20.81172 -1.65581 32925 ft 511 kts 168°
2026-04-29 11:04 20.74395 -1.63097 32931 ft 513 kts 168°
2026-04-29 11:05 20.67667 -1.60632 32939 ft 512 kts 168°
2026-04-29 11:05 20.60904 -1.58157 32935 ft 512 kts 168°
2026-04-29 11:06 20.54126 -1.55680 32946 ft 514 kts 168°
2026-04-29 11:06 20.47339 -1.53200 32949 ft 513 kts 168°
2026-04-29 11:07 20.40589 -1.50735 32956 ft 513 kts 168°
2026-04-29 11:07 20.33777 -1.48252 32955 ft 513 kts 168°
2026-04-29 11:08 20.27022 -1.45791 32955 ft 512 kts 168°
2026-04-29 11:08 20.20261 -1.43329 32955 ft 510 kts 168°
2026-04-29 11:09 20.13517 -1.40878 32958 ft 512 kts 168°
2026-04-29 11:09 20.06742 -1.38418 32957 ft 514 kts 168°
2026-04-29 11:10 19.99971 -1.35960 32955 ft 513 kts 168°
2026-04-29 11:10 19.93190 -1.33499 32955 ft 511 kts 168°
2026-04-29 11:11 19.86391 -1.31038 32955 ft 513 kts 168°
2026-04-29 11:11 19.79630 -1.28591 32952 ft 513 kts 168°
2026-04-29 11:12 19.72865 -1.26144 32950 ft 512 kts 168°
2026-04-29 11:12 19.66108 -1.23702 32949 ft 512 kts 168°
2026-04-29 11:13 19.59345 -1.21262 32949 ft 514 kts 168°
2026-04-29 11:13 19.52528 -1.18803 32951 ft 514 kts 168°
2026-04-29 11:14 19.45782 -1.16371 32954 ft 511 kts 168°
2026-04-29 11:14 19.39000 -1.13929 32955 ft 512 kts 168°
2026-04-29 11:15 19.32251 -1.11503 32954 ft 514 kts 168°
2026-04-29 11:15 19.25445 -1.09057 32951 ft 513 kts 167°
2026-04-29 11:16 19.18672 -1.06624 32954 ft 514 kts 167°
2026-04-29 11:16 19.11887 -1.04190 32958 ft 514 kts 167°
2026-04-29 11:17 19.05096 -1.01756 32966 ft 514 kts 167°
2026-04-29 11:17 18.98307 -0.99324 32972 ft 514 kts 167°
2026-04-29 11:18 18.91512 -0.96892 32974 ft 513 kts 167°
2026-04-29 11:18 18.84720 -0.94464 32978 ft 513 kts 167°
2026-04-29 11:19 18.77952 -0.92047 32979 ft 514 kts 167°
2026-04-29 11:19 18.71137 -0.89614 32979 ft 514 kts 167°
2026-04-29 11:20 18.64356 -0.87196 32981 ft 515 kts 167°
2026-04-29 11:20 18.57549 -0.84772 32983 ft 516 kts 167°
2026-04-29 11:21 18.50748 -0.82349 32983 ft 513 kts 167°
2026-04-29 11:21 18.43942 -0.79928 32984 ft 514 kts 167°
2026-04-29 11:22 18.37164 -0.77520 32985 ft 513 kts 167°
2026-04-29 11:22 18.30374 -0.75109 32988 ft 514 kts 167°
2026-04-29 11:23 18.23576 -0.72698 32982 ft 513 kts 167°
2026-04-29 11:23 18.16823 -0.70304 32983 ft 515 kts 167°
2026-04-29 11:24 18.10006 -0.67890 32983 ft 516 kts 167°
2026-04-29 11:24 18.03171 -0.65470 32975 ft 514 kts 167°
2026-04-29 11:25 17.96390 -0.63071 32964 ft 513 kts 167°
2026-04-29 11:25 17.89590 -0.60670 32961 ft 515 kts 167°
2026-04-29 11:26 17.79390 -0.57068 32960 ft 513 kts 167°
2026-04-29 11:26 17.72582 -0.54669 32955 ft 515 kts 167°
2026-04-29 11:27 17.65759 -0.52266 32959 ft 517 kts 167°
2026-04-29 11:27 17.58928 -0.49861 32956 ft 515 kts 167°
2026-04-29 11:28 17.52086 -0.47453 32952 ft 515 kts 166°
2026-04-29 11:28 17.45263 -0.45057 32950 ft 518 kts 166°
2026-04-29 11:29 17.38424 -0.42654 32947 ft 517 kts 166°
2026-04-29 11:29 17.31577 -0.40249 32946 ft 516 kts 166°
2026-04-29 11:30 17.24728 -0.37850 32940 ft 519 kts 166°
2026-04-29 11:30 17.17888 -0.35452 32934 ft 516 kts 166°
2026-04-29 11:31 17.11081 -0.33068 32933 ft 516 kts 167°
2026-04-29 11:31 17.04238 -0.30676 32930 ft 518 kts 167°
2026-04-29 11:32 16.97360 -0.28272 32927 ft 518 kts 166°
2026-04-29 11:32 16.90546 -0.25890 32927 ft 517 kts 166°
2026-04-29 11:33 16.83681 -0.23495 32922 ft 519 kts 166°
2026-04-29 11:33 16.76813 -0.21099 32918 ft 518 kts 166°
2026-04-29 11:34 16.69979 -0.18717 32913 ft 517 kts 166°
2026-04-29 11:34 16.63121 -0.16329 32910 ft 518 kts 166°
2026-04-29 11:35 16.56267 -0.13944 32909 ft 516 kts 166°
2026-04-29 11:35 16.49429 -0.11567 32908 ft 517 kts 166°
2026-04-29 11:36 16.42609 -0.09198 32908 ft 518 kts 166°
2026-04-29 11:36 16.35752 -0.06816 32911 ft 516 kts 166°
2026-04-29 11:37 16.28925 -0.04447 32902 ft 517 kts 166°
2026-04-29 11:37 16.22393 -0.01200 32896 ft 527 kts 151°
2026-04-29 11:38 16.16388 0.03289 32897 ft 532 kts 145°
2026-04-29 11:38 16.10600 0.08099 32897 ft 529 kts 144°
2026-04-29 11:39 16.04856 0.12887 32898 ft 527 kts 144°
2026-04-29 11:39 15.99091 0.17643 32895 ft 529 kts 145°
2026-04-29 11:40 15.93332 0.22372 32891 ft 530 kts 145°
2026-04-29 11:40 15.87537 0.27127 32889 ft 527 kts 144°
2026-04-29 11:41 15.81788 0.31843 32893 ft 527 kts 144°
2026-04-29 11:41 15.75970 0.36615 32891 ft 530 kts 144°
2026-04-29 11:42 15.70212 0.41335 32889 ft 529 kts 144°
2026-04-29 11:42 15.64408 0.46089 32886 ft 527 kts 144°
2026-04-29 11:43 15.58673 0.50784 32895 ft 528 kts 144°
2026-04-29 11:43 15.52865 0.55534 32903 ft 529 kts 144°
2026-04-29 11:44 15.47111 0.60235 32907 ft 528 kts 144°
2026-04-29 11:44 15.41319 0.64962 32902 ft 528 kts 144°
2026-04-29 11:45 15.35537 0.69674 32903 ft 527 kts 144°
2026-04-29 11:45 15.29788 0.74357 32908 ft 525 kts 144°
2026-04-29 11:46 15.24023 0.79047 32912 ft 525 kts 144°
2026-04-29 11:46 15.18264 0.83730 32915 ft 527 kts 144°
2026-04-29 11:47 15.12491 0.88421 32916 ft 528 kts 144°
2026-04-29 11:47 15.06705 0.93119 32914 ft 526 kts 144°
2026-04-29 11:48 15.00987 0.97760 32917 ft 524 kts 144°
2026-04-29 11:48 14.95206 1.02447 32923 ft 525 kts 144°
2026-04-29 11:49 14.89452 1.07109 32919 ft 526 kts 144°
2026-04-29 11:49 14.83671 1.11790 32915 ft 526 kts 144°
2026-04-29 11:50 14.77900 1.16460 32910 ft 524 kts 144°
2026-04-29 11:50 14.72164 1.21099 32905 ft 525 kts 144°
2026-04-29 11:51 14.66388 1.25766 32903 ft 526 kts 143°
2026-04-29 11:51 14.60641 1.30407 32905 ft 526 kts 143°
2026-04-29 11:52 14.54894 1.35045 32905 ft 524 kts 143°
2026-04-29 11:52 14.49102 1.39715 32906 ft 525 kts 143°
2026-04-29 11:53 14.43351 1.44349 32904 ft 527 kts 143°
2026-04-29 11:53 14.37553 1.49019 32899 ft 526 kts 143°
2026-04-29 11:54 14.31814 1.53638 32895 ft 523 kts 143°
2026-04-29 11:54 14.26046 1.58277 32891 ft 524 kts 143°